Hourly Data Report for July 16, 2021

FLIN FLON
MANITOBA
Current Station Operator: ECCC - MSC

54°41'00.000" N
101°41'00.000" W
303.90 m
5050919
71954
WFO

Download Data

Hourly Data (July 2021)
Hourly Data Report for July 16, 2021
TIME
LST
Temp Definition
°C
Dew Point Definition
°C
Rel Hum Definition
%
Precip. Amount Definition
mm

Wind Dir Definition
10's deg

Wind Spd Definition
km/h
Visibility Definition
km
Stn Press Definition
kPa
Hmdx Definition


Wind Chill Definition


Weather Definition


00:00 24.4 17.0 63 0.0 19 10   96.84 30   LegendNANA
01:00 23.9 16.3 63 0.0 19 10   96.85 29   LegendNANA
02:00 23.5 15.2 60 0.0 0 1   96.93 28   LegendNANA
03:00 24.3 14.9 56 0.0 11 4   96.80 28   LegendNANA
04:00 23.4 14.9 59 0.0 15 5   96.84 27   LegendNANA
05:00 21.2 15.2 69 0.0 0 1   96.90 25   LegendNANA
06:00 19.6 15.5 78 0.0 33 2   96.95     LegendNANA
07:00 21.2 16.1 73 0.0 34 4   97.01 26   LegendNANA
08:00 22.8 15.1 62 0.0 34 22   97.06 27   LegendNANA
09:00 21.7 14.4 63 0.0 35 21   97.18 25   LegendNANA
10:00 22.1 14.1 61 0.0 36 25   97.26 26   LegendNANA
11:00 22.6 14.2 59 0.0 35 23   97.34 26   LegendNANA
12:00 23.4 13.0 52 0.0 1 18   97.41 26   LegendNANA
13:00 24.7 12.5 47 0.0 33 20   97.47 27   LegendNANA
14:00 25.8 11.4 41 0.0 34 19   97.51 28   LegendNANA
15:00 26.2 11.1 39 0.0 36 15   97.58 28   LegendNANA
16:00 26.2 9.4 35 0.0 35 19   97.63 27   LegendNANA
17:00 25.8 10.0 37 0.0 36 18   97.68 27   LegendNANA
18:00 25.2 9.9 38 0.0 36 18   97.74 26   LegendNANA
19:00 23.7 9.3 40 0.0 2 16   97.80 25   LegendNANA
20:00 22.0 11.5 51 0.0 3 20   97.87     LegendNANA
21:00 20.3 10.5 53 0.0 2 15   98.00     LegendNANA
22:00 18.8 10.1 57 0.0 2 19   98.08     LegendNANA
23:00 17.5 9.8 61 0.0 3 17   98.17     LegendNANA

Notes on Data Quality.

Legend

  • E = Estimated
  • M = Missing
  • NA = Not Available*
  • [empty] = Indicates an unobserved value
Date modified: